Volver al catálogo

NAVSTAR 46

USA 145

ActivoNavegaciónHEO
NORAD 25933·PAYLOAD·🇺🇸 United States

Lanzado Oct 7, 1999 desde Cape Canaveral Space Force Station

Loading…

Próximos Pases (próximas 24 horas)

TLE

ActualizadoSource: Space-Track

Época: Sep 14, 2026, 01:15 UTC

1 25933U 99055A   26257.05254903 -.00000052  00000-0  00000-0 0  9998
2 25933  51.3829 291.5720 0104808 180.1121 187.0098  2.00557825197366

Sigue NAVSTAR 46 en tiempo real con AllMySat

Download on the App Store